| time (UTC) | temp F | wind direction | speed MPH | gust MPH | rain 1hr in | rain 24hr in | rain mn in | humidity % | barometer mb |
| 20260906031450 | 73 | 68 | 4.0 | 6.0 | 0.00 | 0.01 | 0.01 | 91 | 1046.4 |
| 20260906030945 | 73 | 79 | 2.0 | 2.0 | 0.00 | 0.01 | 0.01 | 94 | 1045.8 |
| 20260906030439 | 73 | 177 | 0.0 | 0.0 | 0.00 | 0.01 | 0.01 | 93 | 1045.6 |
| 20260906025934 | 73 | 176 | 0.0 | 0.0 | 0.00 | 0.01 | 0.01 | 94 | 1045.6 |
| 20260906025434 | 73 | 177 | 0.0 | 0.0 | 0.00 | 0.01 | 0.01 | 93 | 1045.9 |
| 20260906024933 | 73 | 177 | 0.0 | 0.0 | 0.00 | 0.01 | 0.01 | 93 | 1045.8 |
| 20260906024433 | 73 | 177 | 0.0 | 0.0 | 0.00 | 0.01 | 0.01 | 93 | 1046.0 |
| 20260906023933 | 74 | 177 | 0.0 | 0.0 | 0.00 | 0.01 | 0.01 | 92 | 1046.0 |
| 20260906023430 | 74 | 177 | 0.0 | 0.0 | 0.00 | 0.01 | 0.01 | 92 | 1045.9 |
| 20260906022930 | 74 | 177 | 0.0 | 0.0 | 0.00 | 0.01 | 0.01 | 92 | 1045.9 |
| 20260906022425 | 74 | 177 | 0.0 | 0.0 | 0.00 | 0.01 | 0.01 | 92 | 1046.0 |
| 20260906021920 | 74 | 177 | 0.0 | 0.0 | 0.00 | 0.01 | 0.01 | 92 | 1046.0 |
| 20260906021420 | 75 | 177 | 0.0 | 0.0 | 0.00 | 0.01 | 0.01 | 91 | 1046.1 |
| 20260906020914 | 75 | 177 | 0.0 | 0.0 | 0.00 | 0.01 | 0.01 | 90 | 1046.0 |
| 20260906020409 | 75 | 176 | 0.0 | 0.0 | 0.00 | 0.01 | 0.01 | 90 | 1045.7 |
| 20260906015903 | 75 | 176 | 0.0 | 0.0 | 0.00 | 0.01 | 0.01 | 90 | 1045.6 |
| 20260906015403 | 76 | 177 | 0.0 | 0.0 | 0.00 | 0.01 | 0.01 | 91 | 1045.7 |
| 20260906014903 | 76 | 177 | 1.0 | 1.0 | 0.00 | 0.01 | 0.01 | 90 | 1045.9 |
| 20260906014403 | 76 | 177 | 0.0 | 0.0 | 0.00 | 0.01 | 0.01 | 89 | 1045.9 |
| 20260906013859 | 77 | 176 | 0.0 | 0.0 | 0.00 | 0.01 | 0.01 | 88 | 1045.8 |
| 20260906013354 | 77 | 176 | 0.0 | 0.0 | 0.00 | 0.01 | 0.01 | 88 | 1045.7 |
| 20260906012850 | 77 | 176 | 0.0 | 1.0 | 0.00 | 0.01 | 0.01 | 88 | 1045.5 |
| 20260906012345 | 77 | 176 | 1.0 | 1.0 | 0.00 | 0.01 | 0.01 | 88 | 1045.5 |
| 20260906011844 | 77 | 177 | 1.0 | 1.0 | 0.00 | 0.01 | 0.01 | 88 | 1045.5 |
| 20260906011339 | 77 | 177 | 0.0 | 0.0 | 0.00 | 0.01 | 0.01 | 88 | 1045.3 |
| 20260906010835 | 77 | 177 | 1.0 | 1.0 | 0.00 | 0.01 | 0.01 | 88 | 1045.4 |
| 20260906010331 | 77 | 84 | 1.0 | 1.0 | 0.00 | 0.01 | 0.01 | 87 | 1045.4 |
| 20260906005826 | 78 | 83 | 0.0 | 0.0 | 0.00 | 0.01 | 0.01 | 87 | 1045.1 |
| 20260906005325 | 78 | 83 | 0.0 | 1.0 | 0.00 | 0.01 | 0.01 | 87 | 1044.9 |
| 20260906004824 | 78 | 167 | 0.0 | 0.0 | 0.00 | 0.01 | 0.01 | 85 | 1045.1 |
| 20260906004324 | 79 | 168 | 1.0 | 1.0 | 0.00 | 0.01 | 0.01 | 84 | 1045.0 |
| 20260906003819 | 79 | 168 | 2.0 | 2.0 | 0.00 | 0.01 | 0.01 | 84 | 1045.2 |
| 20260906003315 | 79 | 166 | 1.0 | 2.0 | 0.00 | 0.01 | 0.01 | 85 | 1045.2 |
| 20260906002810 | 79 | 167 | 2.0 | 2.0 | 0.00 | 0.01 | 0.01 | 86 | 1045.1 |
| 20260906002309 | 80 | 105 | 0.0 | 0.0 | 0.00 | 0.01 | 0.01 | 85 | 1045.0 |
| 20260906001805 | 80 | 105 | 0.0 | 1.0 | 0.00 | 0.01 | 0.01 | 84 | 1045.3 |
| 20260906001300 | 80 | 105 | 1.0 | 1.0 | 0.00 | 0.01 | 0.01 | 84 | 1045.2 |
| 20260906000755 | 81 | 105 | 1.0 | 1.0 | 0.00 | 0.01 | 0.01 | 82 | 1045.4 |
| 20260906000256 | 81 | 105 | 0.0 | 0.0 | 0.00 | 0.01 | 0.01 | 82 | 1045.2 |
| 20260905235750 | 82 | 105 | 1.0 | 1.0 | 0.00 | 0.01 | 0.01 | 81 | 1045.1 |
| 20260905235250 | 83 | 105 | 0.0 | 0.0 | 0.00 | 0.01 | 0.01 | 80 | 1045.3 |
| 20260905234746 | 83 | 105 | 0.0 | 0.0 | 0.00 | 0.01 | 0.01 | 78 | 1045.4 |
| 20260905234241 | 83 | 105 | 1.0 | 1.0 | 0.00 | 0.01 | 0.01 | 76 | 1045.8 |
| 20260905233737 | 83 | 106 | 1.0 | 1.0 | 0.00 | 0.01 | 0.01 | 77 | 1045.4 |
| 20260905233236 | 84 | 105 | 1.0 | 1.0 | 0.00 | 0.01 | 0.01 | 76 | 1045.6 |
| 20260905232736 | 85 | 105 | 1.0 | 1.0 | 0.00 | 0.01 | 0.01 | 73 | 1045.9 |
| 20260905232232 | 85 | 105 | 1.0 | 1.0 | 0.00 | 0.01 | 0.01 | 72 | 1045.8 |
| 20260905231727 | 86 | 104 | 1.0 | 1.0 | 0.00 | 0.01 | 0.01 | 70 | 1045.8 |
| 20260905231223 | 87 | 104 | 1.0 | 1.0 | 0.00 | 0.01 | 0.01 | 68 | 1045.8 |
| 20260905230719 | 89 | 91 | 1.0 | 1.0 | 0.00 | 0.01 | 0.01 | 68 | 1045.7 |
| 20260905230216 | 89 | 22 | 0.0 | 0.0 | 0.00 | 0.01 | 0.01 | 64 | 1045.6 |
| 20260905225716 | 90 | 22 | 0.0 | 1.0 | 0.00 | 0.01 | 0.01 | 61 | 1045.5 |
| 20260905225211 | 91 | 26 | 1.0 | 1.0 | 0.00 | 0.01 | 0.01 | 58 | 1045.4 |
| 20260905224711 | 92 | 12 | 0.0 | 1.0 | 0.00 | 0.01 | 0.01 | 55 | 1045.4 |
| 20260905224206 | 92 | 53 | 1.0 | 1.0 | 0.00 | 0.01 | 0.01 | 55 | 1045.6 |
| 20260905223702 | 93 | 50 | 1.0 | 2.0 | 0.00 | 0.01 | 0.01 | 53 | 1045.7 |
| 20260905223159 | 94 | 0 | 0.0 | 1.0 | 0.00 | 0.01 | 0.01 | 53 | 1045.6 |
| 20260905222654 | 93 | 43 | 1.0 | 1.0 | 0.00 | 0.01 | 0.01 | 51 | 1045.5 |
| 20260905222154 | 94 | 51 | 2.0 | 3.0 | 0.00 | 0.01 | 0.01 | 48 | 1045.7 |
| 20260905221649 | 94 | 327 | 1.0 | 2.0 | 0.00 | 0.01 | 0.01 | 49 | 1045.3 |
| 20260905221146 | 94 | 14 | 1.0 | 2.0 | 0.00 | 0.01 | 0.01 | 52 | 1045.6 |
| 20260905220642 | 93 | 51 | 2.0 | 2.0 | 0.00 | 0.01 | 0.01 | 49 | 1045.5 |
| 20260905220138 | 93 | 62 | 4.0 | 6.0 | 0.00 | 0.01 | 0.01 | 47 | 1045.4 |
| 20260905215637 | 95 | 31 | 5.0 | 6.0 | 0.00 | 0.01 | 0.01 | 46 | 1045.1 |
| 20260905215133 | 95 | 58 | 2.0 | 2.0 | 0.00 | 0.01 | 0.01 | 46 | 1044.9 |
| 20260905214629 | 95 | 338 | 3.0 | 2.0 | 0.00 | 0.01 | 0.01 | 45 | 1044.9 |
| 20260905214129 | 95 | 47 | 2.0 | 4.0 | 0.00 | 0.01 | 0.01 | 46 | 1045.1 |
| 20260905213624 | 96 | 50 | 3.0 | 3.0 | 0.00 | 0.01 | 0.01 | 44 | 1044.7 |
| 20260905213119 | 96 | 300 | 2.0 | 2.0 | 0.00 | 0.01 | 0.01 | 46 | 1044.9 |
| 20260905212615 | 95 | 324 | 1.0 | 3.0 | 0.00 | 0.01 | 0.01 | 48 | 1044.9 |
| 20260905212114 | 95 | 305 | 2.0 | 4.0 | 0.00 | 0.01 | 0.01 | 47 | 1044.9 |
| 20260905211609 | 95 | 283 | 4.0 | 8.0 | 0.00 | 0.01 | 0.01 | 47 | 1045.0 |
| 20260905211104 | 95 | 302 | 3.0 | 4.0 | 0.00 | 0.01 | 0.01 | 48 | 1044.7 |
| 20260905210600 | 95 | 41 | 3.0 | 4.0 | 0.00 | 0.01 | 0.01 | 45 | 1045.2 |
| 20260905210055 | 96 | 51 | 2.0 | 4.0 | 0.00 | 0.01 | 0.01 | 45 | 1044.9 |
| 20260905205555 | 95 | 333 | 2.0 | 4.0 | 0.00 | 0.01 | 0.01 | 43 | 1045.1 |
| 20260905205054 | 95 | 22 | 1.0 | 3.0 | 0.00 | 0.01 | 0.01 | 45 | 1045.0 |
| 20260905204549 | 95 | 53 | 2.0 | 4.0 | 0.00 | 0.01 | 0.01 | 45 | 1044.8 |
| 20260905204044 | 95 | 316 | 6.0 | 6.0 | 0.00 | 0.01 | 0.01 | 45 | 1044.9 |
| 20260905203544 | 96 | 332 | 5.0 | 6.0 | 0.00 | 0.01 | 0.01 | 44 | 1045.3 |
| 20260905203039 | 95 | 232 | 0.0 | 4.0 | 0.00 | 0.01 | 0.01 | 43 | 1045.1 |
| 20260905202535 | 95 | 287 | 3.0 | 6.0 | 0.00 | 0.01 | 0.01 | 43 | 1045.0 |
| 20260905202030 | 95 | 302 | 1.0 | 4.0 | 0.00 | 0.01 | 0.01 | 45 | 1045.4 |
| 20260905201526 | 95 | 344 | 4.0 | 4.0 | 0.00 | 0.01 | 0.01 | 44 | 1045.5 |
| 20260905201025 | 95 | 1 | 2.0 | 3.0 | 0.00 | 0.01 | 0.01 | 47 | 1045.4 |
| 20260905200521 | 95 | 49 | 2.0 | 4.0 | 0.00 | 0.01 | 0.01 | 46 | 1045.7 |
| 20260905200020 | 95 | 16 | 2.0 | 4.0 | 0.00 | 0.01 | 0.01 | 44 | 1045.7 |
| 20260905195514 | 95 | 238 | 4.0 | 6.0 | 0.00 | 0.01 | 0.01 | 46 | 1045.6 |
| 20260905195009 | 96 | 234 | 4.0 | 6.0 | 0.00 | 0.01 | 0.01 | 44 | 1045.7 |
| 20260905194504 | 96 | 163 | 1.0 | 2.0 | 0.00 | 0.01 | 0.01 | 43 | 1045.7 |
| 20260905194003 | 96 | 178 | 1.0 | 2.0 | 0.00 | 0.01 | 0.01 | 43 | 1045.9 |
| 20260905193458 | 96 | 267 | 5.0 | 6.0 | 0.00 | 0.01 | 0.01 | 43 | 1046.2 |
| 20260905192953 | 94 | 177 | 1.0 | 1.0 | 0.00 | 0.01 | 0.01 | 46 | 1045.9 |
| 20260905192448 | 94 | 247 | 2.0 | 6.0 | 0.00 | 0.01 | 0.01 | 45 | 1046.1 |
| 20260905191944 | 94 | 246 | 5.0 | 7.0 | 0.00 | 0.01 | 0.01 | 46 | 1045.9 |
| 20260905191444 | 94 | 247 | 3.0 | 6.0 | 0.00 | 0.01 | 0.01 | 45 | 1046.1 |
| 20260905190943 | 95 | 243 | 3.0 | 3.0 | 0.00 | 0.01 | 0.01 | 46 | 1046.2 |
| 20260905190441 | 94 | 278 | 1.0 | 4.0 | 0.00 | 0.01 | 0.01 | 45 | 1046.4 |
| 20260905185940 | 93 | 296 | 6.0 | 6.0 | 0.00 | 0.01 | 0.01 | 46 | 1046.3 |
| 20260905185435 | 93 | 277 | 6.0 | 6.0 | 0.00 | 0.01 | 0.01 | 48 | 1046.2 |
| 20260905184934 | 94 | 324 | 7.0 | 8.0 | 0.00 | 0.01 | 0.01 | 47 | 1046.3 |
| 20260905184429 | 94 | 223 | 1.0 | 2.0 | 0.00 | 0.01 | 0.01 | 47 | 1046.6 |
| 20260905183927 | 94 | 220 | 2.0 | 6.0 | 0.00 | 0.01 | 0.01 | 47 | 1046.9 |
| 20260905183422 | 93 | 261 | 2.0 | 2.0 | 0.00 | 0.01 | 0.01 | 47 | 1046.5 |
| 20260905182917 | 93 | 211 | 1.0 | 4.0 | 0.00 | 0.01 | 0.01 | 47 | 1046.4 |
| 20260905182416 | 92 | 251 | 3.0 | 6.0 | 0.00 | 0.01 | 0.01 | 47 | 1046.5 |
| 20260905181912 | 91 | 212 | 3.0 | 3.0 | 0.00 | 0.01 | 0.01 | 46 | 1047.0 |
| 20260905181412 | 92 | 216 | 5.0 | 8.0 | 0.00 | 0.01 | 0.01 | 46 | 1046.8 |
| 20260905180911 | 92 | 264 | 2.0 | 4.0 | 0.00 | 0.01 | 0.01 | 46 | 1046.8 |
| 20260905180406 | 92 | 230 | 4.0 | 7.0 | 0.00 | 0.01 | 0.01 | 48 | 1046.8 |
| 20260905175907 | 91 | 202 | 5.0 | 6.0 | 0.00 | 0.01 | 0.01 | 49 | 1047.3 |
| 20260905175406 | 91 | 247 | 4.0 | 6.0 | 0.00 | 0.01 | 0.01 | 52 | 1047.1 |
| 20260905174907 | 91 | 277 | 3.0 | 6.0 | 0.00 | 0.01 | 0.01 | 48 | 1047.1 |
| 20260905174403 | 91 | 273 | 4.0 | 4.0 | 0.00 | 0.01 | 0.01 | 49 | 1047.2 |
| 20260905173858 | 91 | 329 | 1.0 | 6.0 | 0.00 | 0.01 | 0.01 | 47 | 1047.0 |
| 20260905173354 | 91 | 214 | 5.0 | 4.0 | 0.00 | 0.01 | 0.01 | 48 | 1047.2 |
| 20260905172849 | 90 | 192 | 4.0 | 7.0 | 0.00 | 0.01 | 0.01 | 48 | 1047.3 |
| 20260905172347 | 90 | 257 | 3.0 | 4.0 | 0.00 | 0.01 | 0.01 | 49 | 1047.6 |
| 20260905171843 | 91 | 237 | 2.0 | 4.0 | 0.00 | 0.01 | 0.01 | 51 | 1047.4 |
| 20260905171340 | 91 | 251 | 3.0 | 4.0 | 0.00 | 0.01 | 0.01 | 51 | 1047.6 |
| 20260905170835 | 91 | 253 | 2.0 | 6.0 | 0.00 | 0.01 | 0.01 | 50 | 1047.3 |
| 20260905170331 | 91 | 181 | 4.0 | 4.0 | 0.00 | 0.01 | 0.01 | 51 | 1047.4 |
| 20260905165831 | 90 | 191 | 3.0 | 3.0 | 0.00 | 0.01 | 0.01 | 51 | 1047.3 |
| 20260905165327 | 91 | 257 | 2.0 | 2.0 | 0.00 | 0.01 | 0.01 | 50 | 1047.5 |
| 20260905164826 | 89 | 261 | 1.0 | 2.0 | 0.00 | 0.01 | 0.01 | 50 | 1047.2 |
| 20260905164321 | 89 | 105 | 2.0 | 3.0 | 0.00 | 0.01 | 0.01 | 51 | 1047.2 |
| 20260905163816 | 89 | 209 | 3.0 | 4.0 | 0.00 | 0.01 | 0.01 | 54 | 1047.3 |
| 20260905163313 | 88 | 255 | 3.0 | 3.0 | 0.00 | 0.01 | 0.01 | 53 | 1047.1 |
| 20260905162809 | 87 | 230 | 4.0 | 6.0 | 0.00 | 0.01 | 0.01 | 55 | 1047.1 |
| 20260905162308 | 87 | 205 | 1.0 | 3.0 | 0.00 | 0.01 | 0.01 | 56 | 1047.1 |
| 20260905161803 | 87 | 199 | 2.0 | 3.0 | 0.00 | 0.01 | 0.01 | 56 | 1047.3 |
| 20260905161302 | 86 | 209 | 2.0 | 4.0 | 0.00 | 0.01 | 0.01 | 55 | 1047.5 |
| 20260905160801 | 86 | 230 | 3.0 | 4.0 | 0.00 | 0.01 | 0.01 | 56 | 1047.1 |
| 20260905160300 | 86 | 240 | 2.0 | 7.0 | 0.00 | 0.01 | 0.01 | 58 | 1047.4 |
| 20260905155756 | 86 | 217 | 4.0 | 6.0 | 0.00 | 0.01 | 0.01 | 56 | 1047.7 |
| 20260905155254 | 85 | 221 | 4.0 | 9.0 | 0.00 | 0.01 | 0.01 | 58 | 1047.8 |
| 20260905154748 | 85 | 221 | 4.0 | 4.0 | 0.00 | 0.01 | 0.01 | 60 | 1047.8 |
| 20260905154245 | 84 | 246 | 1.0 | 6.0 | 0.00 | 0.01 | 0.01 | 63 | 1047.9 |
| 20260905153740 | 85 | 220 | 3.0 | 4.0 | 0.00 | 0.01 | 0.01 | 62 | 1048.1 |
| 20260905153236 | 85 | 92 | 3.0 | 4.0 | 0.00 | 0.01 | 0.01 | 61 | 1048.0 |
| 20260905152731 | 83 | 218 | 1.0 | 2.0 | 0.00 | 0.01 | 0.01 | 65 | 1048.2 |
| 20260905152230 | 83 | 20 | 2.0 | 3.0 | 0.00 | 0.01 | 0.01 | 66 | 1048.4 |
| 20260905151730 | 82 | 218 | 2.0 | 6.0 | 0.00 | 0.01 | 0.01 | 66 | 1048.5 |
| 20260905151226 | 81 | 225 | 4.0 | 4.0 | 0.00 | 0.01 | 0.01 | 68 | 1048.9 |
| 20260905150721 | 81 | 225 | 3.0 | 8.0 | 0.00 | 0.01 | 0.01 | 71 | 1048.5 |
| 20260905150220 | 82 | 208 | 2.0 | 7.0 | 0.00 | 0.01 | 0.01 | 70 | 1048.5 |
| 20260905145718 | 84 | 199 | 3.0 | 4.0 | 0.00 | 0.01 | 0.01 | 65 | 1048.8 |
| 20260905145213 | 83 | 154 | 3.0 | 4.0 | 0.00 | 0.01 | 0.01 | 65 | 1048.5 |
| 20260905144712 | 83 | 141 | 2.0 | 3.0 | 0.00 | 0.01 | 0.01 | 65 | 1048.5 |
| 20260905144212 | 83 | 164 | 1.0 | 3.0 | 0.00 | 0.01 | 0.01 | 67 | 1048.6 |
| 20260905143711 | 83 | 204 | 1.0 | 4.0 | 0.00 | 0.01 | 0.01 | 68 | 1048.8 |
| 20260905143206 | 82 | 216 | 3.0 | 4.0 | 0.00 | 0.01 | 0.01 | 67 | 1048.9 |
| 20260905142704 | 82 | 68 | 1.0 | 2.0 | 0.00 | 0.01 | 0.01 | 70 | 1048.6 |
| 20260905142205 | 82 | 179 | 1.0 | 2.0 | 0.00 | 0.01 | 0.01 | 70 | 1048.8 |
| 20260905141700 | 82 | 216 | 2.0 | 2.0 | 0.00 | 0.01 | 0.01 | 71 | 1048.8 |
| 20260905141156 | 80 | 146 | 0.0 | 1.0 | 0.00 | 0.01 | 0.01 | 73 | 1048.6 |
| 20260905140651 | 78 | 242 | 1.0 | 1.0 | 0.00 | 0.01 | 0.01 | 76 | 1048.6 |
| 20260905140151 | 77 | 205 | 1.0 | 1.0 | 0.00 | 0.01 | 0.01 | 80 | 1048.8 |
| 20260905135646 | 76 | 89 | 3.0 | 3.0 | 0.00 | 0.01 | 0.01 | 80 | 1049.0 |
| 20260905135141 | 76 | 106 | 0.0 | 0.0 | 0.00 | 0.01 | 0.01 | 81 | 1048.9 |
| 20260905134636 | 75 | 227 | 2.0 | 2.0 | 0.00 | 0.01 | 0.01 | 84 | 1049.2 |
| 20260905134134 | 74 | 121 | 0.0 | 2.0 | 0.00 | 0.01 | 0.01 | 84 | 1049.3 |
| 20260905133630 | 74 | 136 | 1.0 | 1.0 | 0.00 | 0.01 | 0.01 | 87 | 1049.2 |
| 20260905133130 | 73 | 127 | 2.0 | 3.0 | 0.00 | 0.01 | 0.01 | 86 | 1049.4 |
| 20260905132630 | 73 | 207 | 0.0 | 3.0 | 0.00 | 0.01 | 0.01 | 88 | 1049.5 |
| 20260905132125 | 73 | 94 | 3.0 | 4.0 | 0.00 | 0.01 | 0.01 | 87 | 1049.8 |
| 20260905131620 | 73 | 112 | 5.0 | 6.0 | 0.05 | 0.01 | 0.01 | 87 | 1049.5 |
| 20260905131115 | 73 | 90 | 4.0 | 7.0 | 0.05 | 0.01 | 0.01 | 85 | 1049.4 |
| 20260905130615 | 74 | 89 | 3.0 | 6.0 | 0.00 | 0.00 | 0.00 | 83 | 1049.3 |
| 20260905130114 | 74 | 66 | 6.0 | 8.0 | 0.00 | 0.00 | 0.00 | 81 | 1049.2 |
| 20260905125609 | 74 | 70 | 3.0 | 4.0 | 0.00 | 0.00 | 0.00 | 81 | 1049.2 |
| 20260905125104 | 74 | 53 | 2.0 | 4.0 | 0.00 | 0.00 | 0.00 | 82 | 1049.3 |
| 20260905124601 | 74 | 52 | 6.0 | 9.0 | 0.00 | 0.00 | 0.00 | 82 | 1049.2 |
| 20260905124057 | 74 | 17 | 2.0 | 2.0 | 0.00 | 0.00 | 0.00 | 83 | 1048.8 |
| 20260905123552 | 74 | 112 | 1.0 | 2.0 | 0.00 | 0.00 | 0.00 | 82 | 1048.5 |
| 20260905123049 | 74 | 98 | 1.0 | 1.0 | 0.00 | 0.00 | 0.00 | 82 | 1048.2 |
| 20260905122548 | 74 | 94 | 2.0 | 2.0 | 0.00 | 0.00 | 0.00 | 82 | 1048.7 |
| 20260905122043 | 74 | 74 | 0.0 | 1.0 | 0.00 | 0.00 | 0.00 | 82 | 1048.5 |
| 20260905121538 | 74 | 83 | 1.0 | 2.0 | 0.00 | 0.00 | 0.00 | 83 | 1048.4 |
| 20260905121033 | 74 | 181 | 1.0 | 2.0 | 0.00 | 0.00 | 0.00 | 84 | 1048.1 |
| 20260905120532 | 74 | 344 | 2.0 | 2.0 | 0.00 | 0.00 | 0.00 | 83 | 1048.6 |
| 20260905120028 | 74 | 51 | 2.0 | 6.0 | 0.00 | 0.00 | 0.00 | 85 | 1048.9 |
| 20260905115526 | 74 | 3 | 1.0 | 6.0 | 0.00 | 0.00 | 0.00 | 88 | 1048.6 |
| 20260905115021 | 74 | 31 | 2.0 | 2.0 | 0.00 | 0.00 | 0.00 | 90 | 1048.4 |
| 20260905114521 | 74 | 350 | 0.0 | 2.0 | 0.00 | 0.00 | 0.00 | 90 | 1048.2 |
| 20260905114020 | 74 | 154 | 1.0 | 2.0 | 0.00 | 0.00 | 0.00 | 88 | 1048.2 |
| 20260905113515 | 74 | 142 | 0.0 | 1.0 | 0.00 | 0.00 | 0.00 | 88 | 1048.4 |
| 20260905113010 | 75 | 119 | 1.0 | 2.0 | 0.00 | 0.00 | 0.00 | 88 | 1047.8 |
| 20260905112506 | 75 | 49 | 2.0 | 3.0 | 0.00 | 0.00 | 0.00 | 88 | 1048.0 |
| 20260905112001 | 75 | 87 | 3.0 | 6.0 | 0.00 | 0.00 | 0.00 | 89 | 1048.0 |
| 20260905111501 | 74 | 22 | 3.0 | 4.0 | 0.00 | 0.00 | 0.00 | 95 | 1048.7 |
| 20260905110955 | 73 | 77 | 4.0 | 6.0 | 0.00 | 0.00 | 0.00 | 98 | 1048.6 |
| 20260905110454 | 73 | 29 | 3.0 | 4.0 | 0.00 | 0.00 | 0.00 | 98 | 1048.2 |
| 20260905105949 | 72 | 68 | 3.0 | 3.0 | 0.00 | 0.00 | 0.00 | 98 | 1047.9 |
| 20260905105449 | 72 | 341 | 0.0 | 0.0 | 0.00 | 0.00 | 0.00 | 98 | 1047.9 |
| 20260905104948 | 72 | 341 | 1.0 | 1.0 | 0.00 | 0.00 | 0.00 | 98 | 1047.7 |
| 20260905104445 | 72 | 11 | 1.0 | 2.0 | 0.00 | 0.00 | 0.00 | 98 | 1047.8 |
| 20260905103945 | 71 | 336 | 2.0 | 3.0 | 0.00 | 0.00 | 0.00 | 98 | 1047.6 |
| 20260905103440 | 71 | 192 | 0.0 | 0.0 | 0.00 | 0.00 | 0.00 | 98 | 1047.4 |
| 20260905102936 | 71 | 192 | 0.0 | 0.0 | 0.00 | 0.00 | 0.00 | 98 | 1047.4 |
| 20260905102432 | 71 | 192 | 1.0 | 1.0 | 0.00 | 0.00 | 0.00 | 98 | 1047.3 |
| 20260905101927 | 71 | 192 | 0.0 | 0.0 | 0.00 | 0.00 | 0.00 | 98 | 1047.4 |
| 20260905101425 | 71 | 192 | 0.0 | 0.0 | 0.00 | 0.00 | 0.00 | 98 | 1047.3 |
| 20260905100920 | 71 | 192 | 0.0 | 0.0 | 0.00 | 0.00 | 0.00 | 97 | 1047.3 |
| 20260905100416 | 71 | 192 | 0.0 | 0.0 | 0.00 | 0.00 | 0.00 | 98 | 1047.0 |
| 20260905095915 | 71 | 192 | 0.0 | 1.0 | 0.00 | 0.00 | 0.00 | 98 | 1047.2 |
| 20260905095410 | 71 | 192 | 0.0 | 0.0 | 0.00 | 0.00 | 0.00 | 97 | 1047.5 |
| 20260905094910 | 71 | 192 | 0.0 | 0.0 | 0.00 | 0.00 | 0.00 | 98 | 1047.7 |
| 20260905094406 | 71 | 192 | 0.0 | 0.0 | 0.00 | 0.00 | 0.00 | 97 | 1047.2 |
| 20260905093905 | 71 | 192 | 0.0 | 0.0 | 0.00 | 0.00 | 0.00 | 97 | 1047.2 |
| 20260905093401 | 71 | 192 | 0.0 | 0.0 | 0.00 | 0.00 | 0.00 | 97 | 1047.2 |
| 20260905092856 | 71 | 192 | 0.0 | 0.0 | 0.00 | 0.00 | 0.00 | 97 | 1047.0 |
| 20260905092357 | 71 | 192 | 0.0 | 0.0 | 0.00 | 0.00 | 0.00 | 97 | 1046.9 |
| 20260905091857 | 71 | 192 | 0.0 | 0.0 | 0.00 | 0.00 | 0.00 | 97 | 1047.0 |
| 20260905091356 | 71 | 192 | 0.0 | 0.0 | 0.00 | 0.00 | 0.00 | 97 | 1047.0 |
| 20260905090855 | 71 | 192 | 0.0 | 0.0 | 0.00 | 0.00 | 0.00 | 97 | 1047.0 |
| 20260905090351 | 71 | 192 | 0.0 | 0.0 | 0.00 | 0.00 | 0.00 | 97 | 1047.2 |
| 20260905085851 | 71 | 192 | 0.0 | 0.0 | 0.00 | 0.00 | 0.00 | 97 | 1047.0 |
| 20260905085351 | 71 | 192 | 0.0 | 0.0 | 0.00 | 0.00 | 0.00 | 97 | 1047.0 |
| 20260905084847 | 71 | 192 | 0.0 | 0.0 | 0.00 | 0.00 | 0.00 | 97 | 1047.0 |
| 20260905084345 | 71 | 192 | 0.0 | 0.0 | 0.00 | 0.00 | 0.00 | 97 | 1046.9 |
| 20260905083841 | 71 | 192 | 0.0 | 0.0 | 0.00 | 0.00 | 0.00 | 97 | 1046.9 |
| 20260905083337 | 71 | 192 | 0.0 | 0.0 | 0.00 | 0.00 | 0.00 | 97 | 1046.9 |
| 20260905082832 | 71 | 192 | 0.0 | 1.0 | 0.00 | 0.00 | 0.00 | 97 | 1047.0 |
| 20260905082328 | 71 | 192 | 0.0 | 0.0 | 0.00 | 0.00 | 0.00 | 97 | 1046.9 |
| 20260905081828 | 71 | 192 | 1.0 | 1.0 | 0.00 | 0.00 | 0.00 | 97 | 1046.9 |
| 20260905081323 | 71 | 192 | 0.0 | 1.0 | 0.00 | 0.00 | 0.00 | 97 | 1047.0 |
| 20260905080823 | 71 | 192 | 0.0 | 0.0 | 0.00 | 0.00 | 0.00 | 97 | 1047.1 |
| 20260905080317 | 71 | 192 | 0.0 | 0.0 | 0.00 | 0.00 | 0.00 | 97 | 1047.0 |
| 20260905075816 | 71 | 192 | 0.0 | 0.0 | 0.00 | 0.00 | 0.00 | 97 | 1047.1 |
| 20260905075316 | 72 | 192 | 0.0 | 0.0 | 0.00 | 0.00 | 0.00 | 97 | 1047.1 |
| 20260905074815 | 72 | 192 | 0.0 | 0.0 | 0.00 | 0.00 | 0.00 | 97 | 1047.2 |
| 20260905074311 | 71 | 192 | 0.0 | 0.0 | 0.00 | 0.00 | 0.00 | 97 | 1046.9 |
| 20260905073807 | 71 | 192 | 0.0 | 0.0 | 0.00 | 0.00 | 0.00 | 96 | 1047.2 |
| 20260905073302 | 72 | 192 | 0.0 | 0.0 | 0.00 | 0.00 | 0.00 | 96 | 1047.2 |
| 20260905072801 | 72 | 192 | 0.0 | 0.0 | 0.00 | 0.00 | 0.00 | 96 | 1047.5 |
| 20260905072257 | 72 | 192 | 0.0 | 1.0 | 0.00 | 0.00 | 0.00 | 96 | 1047.4 |
| 20260905071753 | 72 | 192 | 0.0 | 0.0 | 0.00 | 0.00 | 0.00 | 96 | 1047.4 |
| 20260905071249 | 72 | 192 | 0.0 | 0.0 | 0.00 | 0.00 | 0.00 | 96 | 1047.7 |
| 20260905070744 | 72 | 192 | 0.0 | 0.0 | 0.00 | 0.00 | 0.00 | 96 | 1047.6 |
| 20260905070240 | 72 | 192 | 0.0 | 0.0 | 0.00 | 0.00 | 0.00 | 96 | 1047.6 |
| 20260905065739 | 72 | 192 | 0.0 | 0.0 | 0.00 | 0.00 | 0.00 | 96 | 1047.7 |
| 20260905065238 | 72 | 192 | 0.0 | 0.0 | 0.00 | 0.00 | 0.00 | 96 | 1047.6 |
| 20260905064733 | 72 | 192 | 0.0 | 0.0 | 0.00 | 0.00 | 0.00 | 96 | 1047.5 |
| 20260905064229 | 73 | 192 | 0.0 | 0.0 | 0.00 | 0.00 | 0.00 | 96 | 1047.3 |
| 20260905063727 | 73 | 192 | 1.0 | 1.0 | 0.00 | 0.00 | 0.00 | 96 | 1047.6 |
| 20260905063224 | 73 | 192 | 0.0 | 0.0 | 0.00 | 0.00 | 0.00 | 96 | 1047.8 |
| 20260905062720 | 73 | 192 | 0.0 | 1.0 | 0.00 | 0.00 | 0.00 | 96 | 1047.8 |
| 20260905062220 | 73 | 192 | 0.0 | 0.0 | 0.00 | 0.00 | 0.00 | 96 | 1048.0 |
| 20260905061719 | 73 | 192 | 0.0 | 0.0 | 0.00 | 0.00 | 0.00 | 95 | 1048.0 |
| 20260905061214 | 73 | 192 | 0.0 | 0.0 | 0.00 | 0.00 | 0.00 | 95 | 1047.9 |
| 20260905060709 | 73 | 192 | 1.0 | 1.0 | 0.00 | 0.00 | 0.00 | 95 | 1048.2 |
| 20260905060206 | 73 | 192 | 0.0 | 0.0 | 0.00 | 0.00 | 0.00 | 95 | 1048.4 |
| 20260905055704 | 73 | 192 | 0.0 | 0.0 | 0.00 | 0.00 | 0.00 | 95 | 1048.5 |
| 20260905055159 | 73 | 192 | 0.0 | 0.0 | 0.00 | 0.00 | 0.00 | 95 | 1048.6 |
| 20260905054655 | 73 | 192 | 1.0 | 1.0 | 0.00 | 0.00 | 0.00 | 95 | 1048.5 |
| 20260905054151 | 73 | 192 | 0.0 | 0.0 | 0.00 | 0.00 | 0.00 | 95 | 1048.4 |
| 20260905053650 | 73 | 192 | 0.0 | 0.0 | 0.00 | 0.00 | 0.00 | 95 | 1048.2 |
| 20260905053145 | 73 | 192 | 1.0 | 1.0 | 0.00 | 0.00 | 0.00 | 94 | 1048.2 |
| 20260905052644 | 74 | 192 | 0.0 | 1.0 | 0.00 | 0.00 | 0.00 | 94 | 1048.4 |
| 20260905052139 | 74 | 193 | 0.0 | 0.0 | 0.00 | 0.00 | 0.00 | 94 | 1048.5 |
| 20260905051634 | 74 | 193 | 0.0 | 0.0 | 0.00 | 0.00 | 0.00 | 94 | 1048.5 |
| 20260905051131 | 74 | 193 | 0.0 | 0.0 | 0.00 | 0.00 | 0.00 | 94 | 1048.4 |
| 20260905050627 | 74 | 193 | 0.0 | 0.0 | 0.00 | 0.00 | 0.00 | 94 | 1048.8 |
| 20260905050124 | 74 | 193 | 1.0 | 1.0 | 0.00 | 0.00 | 0.00 | 94 | 1048.4 |
| 20260905045624 | 74 | 193 | 1.0 | 1.0 | 0.00 | 0.00 | 0.00 | 94 | 1048.7 |
| 20260905045119 | 74 | 193 | 1.0 | 2.0 | 0.00 | 0.00 | 0.00 | 94 | 1048.8 |
| 20260905044620 | 74 | 193 | 2.0 | 2.0 | 0.00 | 0.00 | 0.00 | 94 | 1048.7 |
| 20260905044119 | 74 | 193 | 2.0 | 2.0 | 0.00 | 0.00 | 0.00 | 93 | 1048.7 |
| 20260905043618 | 74 | 192 | 1.0 | 1.0 | 0.00 | 0.00 | 0.00 | 93 | 1048.6 |
| 20260905043114 | 75 | 192 | 1.0 | 1.0 | 0.00 | 0.00 | 0.00 | 93 | 1048.4 |
| 20260905042612 | 75 | 192 | 0.0 | 0.0 | 0.00 | 0.00 | 0.00 | 93 | 1048.5 |
| 20260905042108 | 75 | 192 | 1.0 | 1.0 | 0.00 | 0.00 | 0.00 | 93 | 1048.5 |
| 20260905041603 | 75 | 197 | 1.0 | 2.0 | 0.00 | 0.00 | 0.00 | 94 | 1048.5 |
| 20260905041059 | 75 | 197 | 2.0 | 2.0 | 0.00 | 0.00 | 0.00 | 94 | 1048.6 |
| 20260905040558 | 74 | 196 | 1.0 | 2.0 | 0.00 | 0.00 | 0.00 | 95 | 1048.4 |
| 20260905040057 | 74 | 202 | 2.0 | 2.0 | 0.00 | 0.00 | 0.00 | 95 | 1048.7 |
| 20260905035552 | 74 | 201 | 0.0 | 0.0 | 0.00 | 0.00 | 0.00 | 95 | 1048.8 |
| 20260905035049 | 74 | 201 | 1.0 | 1.0 | 0.00 | 0.00 | 0.00 | 95 | 1048.6 |
| 20260905034545 | 74 | 202 | 1.0 | 1.0 | 0.00 | 0.00 | 0.00 | 95 | 1048.8 |
| 20260905034039 | 74 | 203 | 2.0 | 2.0 | 0.00 | 0.00 | 0.00 | 95 | 1048.9 |
| 20260905033538 | 74 | 188 | 1.0 | 2.0 | 0.00 | 0.00 | 0.00 | 95 | 1048.9 |
| 20260905033034 | 74 | 217 | 0.0 | 0.0 | 0.00 | 0.00 | 0.00 | 94 | 1048.7 |
| 20260905032534 | 74 | 217 | 0.0 | 0.0 | 0.00 | 0.00 | 0.00 | 93 | 1048.4 |
| 20260905032030 | 74 | 217 | 0.0 | 0.0 | 0.00 | 0.00 | 0.00 | 93 | 1048.4 |